Location: Bakhuizen
(52.8696°N, 5.4575°E)
Time: 08:33:36
(UTC+00:00)

Cosmos 2184 Rocket - Pass Details

Date: 11 May 2021
Orbit: 958 x 1003 km, 82.9° (Epoch: 20 June)

Event Time Altitude Azimuth Distance (km) Brightness Sun altitude
Rises 21:03:15 0° 349° (N) 3,693 8.3 -11.8°
Reaches altitude 10° 21:05:47 10° 349° (N) 2,735 7.5 -12.1°
Maximum altitude 21:12:03 90° 150° (SSE) 975 4.0 -12.6°
Enters shadow 21:17:24 14° 172° (S) 2,384 5.5 -13.1°
